Mattoon, IL

1:22 AM CST on December 10, 2019 (GMT -0600)
Coles County Memorial

Weather History for KMTO - May, 2019

Change the Weather History Date:

Friday, May 31, 2019

  Actual Average Record
Temperature  
Mean Temperature 69 °F 68 °F  
Max Temperature 79 °F 78 °F 93 °F (1988)
Min Temperature 59 °F 57 °F 41 °F (1966)
Degree Days  
Heating Degree Days 0 2  
Month to date heating degree days 130 129  
Since 1 July heating degree days 5517 5390  
Cooling Degree Days 4 4  
Month to date cooling degree days 120 74  
Year to date cooling degree days 125 88  
Growing Degree Days 20 (Base 50)    
Moisture  
Dew Point 58 °F    
Average Humidity 66    
Maximum Humidity 84    
Minimum Humidity 48    
Precipitation  
Precipitation 0.00 in 0.11 in 2.79 in (1982)
Month to date precipitation 2.61 4.37  
Year to date precipitation 11.63 14.35  
Sea Level Pressure  
Sea Level Pressure 29.88 in    
Wind  
Wind Speed 6 mph (West)    
Max Wind Speed 14 mph    
Max Gust Speed 18 mph    
Visibility 10 miles    
Events      
T = Trace of Precipitation, MM = Missing Value Source: NWS Daily Summary

Daily Weather History Graph

Daily Weather History Graph

Search for Another Location

Airport or City:

Astronomy

May. 31, 2019 Rise Set
Actual Time 5:28 AM CDT 8:13 PM CDT
Civil Twilight 4:56 AM CDT 8:45 PM CDT
Nautical Twilight 4:17 AM CDT 9:25 PM CDT
Astronomical Twilight 3:32 AM CDT 10:10 PM CDT
Moon 4:01 AM CDT (5/31) 5:23 PM CDT (5/31)
Length of Visible Light 15h 48m
Length of Day
14h 45m
Waning Crescent, 8% of the Moon is Illuminated
May 31
Waning Crescent
Jun 3
New
Jun 10
First Quarter
Jun 17
Full
Jun 25
Last Quarter

Hourly Weather History & Observations

Time (CDT) Temp. Dew Point Humidity Pressure Visibility Wind Dir Wind Speed Gust Speed Precip Events Conditions
12:53 AM 64.0 °F 55.0 °F 73% 29.83 in 10.0 mi West 4.6 mph - N/A   Clear
1:53 AM 63.0 °F 55.0 °F 75% 29.84 in 10.0 mi Calm Calm - N/A   Clear
2:53 AM 62.1 °F 55.0 °F 78% 29.84 in 10.0 mi WSW 3.5 mph - N/A   Clear
3:53 AM 61.0 °F 55.0 °F 81% 29.85 in 10.0 mi West 3.5 mph - N/A   Clear
4:53 AM 61.0 °F 55.9 °F 83% 29.87 in 10.0 mi West 3.5 mph - N/A   Mostly Cloudy
5:53 AM 60.1 °F 55.9 °F 86% 29.87 in 10.0 mi West 4.6 mph - N/A   Partly Cloudy
6:53 AM 63.0 °F 57.0 °F 81% 29.87 in 10.0 mi West 4.6 mph - N/A   Clear
7:53 AM 64.0 °F 57.9 °F 80% 29.89 in 10.0 mi NW 5.8 mph - N/A   Partly Cloudy
8:53 AM 70.0 °F 59.0 °F 68% 29.90 in 10.0 mi West 8.1 mph - N/A   Mostly Cloudy
9:53 AM 73.0 °F 57.9 °F 59% 29.91 in 10.0 mi Variable 5.8 mph - N/A   Clear
10:53 AM 75.0 °F 57.0 °F 53% 29.91 in 10.0 mi WNW 6.9 mph - N/A   Clear
11:53 AM 73.9 °F 57.0 °F 55% 29.92 in 10.0 mi NW 5.8 mph - N/A   Mostly Cloudy
12:53 PM 75.9 °F 57.9 °F 54% 29.91 in 10.0 mi Variable 6.9 mph - N/A   Mostly Cloudy
1:53 PM 78.1 °F 59.0 °F 52% 29.90 in 10.0 mi West 9.2 mph - N/A   Scattered Clouds
2:53 PM 78.1 °F 57.9 °F 50% 29.89 in 10.0 mi WNW 9.2 mph 16.1 mph N/A   Mostly Cloudy
3:53 PM 79.0 °F 60.1 °F 52% 29.88 in 10.0 mi WNW 10.4 mph - N/A   Partly Cloudy
4:53 PM 78.1 °F 60.1 °F 54% 29.87 in 10.0 mi WNW 5.8 mph - N/A   Partly Cloudy
5:53 PM 77.0 °F 60.1 °F 56% 29.87 in 10.0 mi West 9.2 mph - N/A   Mostly Cloudy
6:53 PM 75.9 °F 59.0 °F 56% 29.87 in 10.0 mi WNW 8.1 mph - N/A   Partly Cloudy
7:53 PM 72.0 °F 60.1 °F 66% 29.88 in 10.0 mi WNW 8.1 mph - N/A   Clear
8:53 PM 70.0 °F 60.1 °F 71% 29.89 in 10.0 mi WSW 4.6 mph - N/A   Clear
9:53 PM 69.1 °F 60.1 °F 73% 29.91 in 10.0 mi SW 4.6 mph - N/A   Clear
10:53 PM 69.1 °F 60.1 °F 73% 29.91 in 10.0 mi WSW 4.6 mph - N/A   Clear
11:53 PM 66.9 °F 60.1 °F 79% 29.90 in 10.0 mi WSW 3.5 mph - N/A   Clear